GEESAT 6-11

导读

GEESAT 6-11是中国于2025年9月24日发射的卫星,隶属于GEESAT系列。作为中国航天布局低轨卫星网络的重要组成部分,该卫星将依托先进的空间技术,助力天地一体化网络建设,可为全球范围内的通信、遥感等应用场景提供支撑,进一步推动中国卫星互联网产业发展,在商业航天和空间资源利用领域发挥积极作用。

基本信息
目录编号:
65723
目录名称:
GEESAT 6-11
国际标识:
2025-214M
轨道中心:
EARTH
卫星名称:
GEESAT 6-11
卫星全名:
GEESAT 6-11
卫星状态:
在轨 (已飞行306 天)
发射日期:
2025-09-24 UTC
国别 :
中国 (CN)
星等 :
--
轨道信息
数据来源 国际轨道数据 AOE轨道数据
星历时间 2026-07-27T11:37:19+0800
18小时前
查看轨道信息
2026-07-27T23:00:00+0800
7小时前
查看轨道信息
半长轴 6996.527km 6996.494km
偏心率 0.0010251 0.0010169
轨道倾角 49.983° 49.983°
近地点辐角 16.162° 17.506°
升交点赤经 122.733° 120.536°
平近点角 343.964° 356.313°
近地点 611.217km 611.242km
远地点 625.563km 625.472km
周期 97.070分钟 97.069分钟
每日圈数 14.834708 14.834815
详细信息
使用方式:
暂无
2D轨道图
3D轨道图
轨道高度分析图
轨道倾角分析图
轨道综合分析图
查看轨道综合分析图